Location: Saint Louis
(38.6272°N, 90.1978°W)
Time: 21:23:16
(UTC-05:00)

ISS - Pass Details

Date: 12 December 2012
Orbit: 401 x 404 km, 51.6° (Epoch: 24 July)

Event Time Altitude Azimuth Distance (km) Brightness Sun altitude
Rises 18:11:03 0° 229° (SW) 2,377 1.8 -17.2°
Reaches altitude 10° 18:13:08 10° 228° (SW) 1,516 0.6 -17.6°
Maximum altitude 18:16:33 86° 140° (SE) 434 -3.3 -18.2°
Enters shadow 18:17:07 59° 58° (ENE) 497 -3.3 -18.4°
